Location: Deurze
(52.9838°N, 6.6090°E)
Time: 18:49:14
(UTC+00:00)

Cosmos 2227 Rocket - Pass Details

Date: 11 March 2026
Orbit: 836 x 845 km, 71.0° (Epoch: 20 April)

Event Time Altitude Azimuth Distance (km) Brightness Sun altitude
Rises 22:46:30 0° 326° (NNW) 3,416 6.2 -39.1°
Reaches altitude 10° 22:48:58 10° 323° (NW) 2,478 5.3 -39.2°
Enters shadow 22:51:06 23° 317° (NW) 1,717 4.2 -39.3°
